This demonstration page uses our WeatherBlox Daily Observations layout. Learn more.

Left ArrowRight Arrow

39.92423, -83.80882

Hourly Observations for August 10, 2019

Temp ( °F °C ) Dew Point ( °F °C ) Humidity (%) Winds ( mph kmh ) Pressure ( in mb ) Visibility ( mi km ) Precip ( " mm )
12:56 am 00:56 Clear 64 17.8 57 13.9 78 78 NNW 6 9 29.97 1015 10 16.0934 N/A
1:56 am 01:56 Clear 62 16.7 57 13.9 84 84 N N/A 29.97 1015 10 16.0934 N/A
2:56 am 02:56 Clear 60 15.6 56 13.3 86 86 N N/A 29.97 1015 10 16.0934 N/A
3:56 am 03:56 Clear 57 13.9 56 13.3 96 96 W 5 7 29.98 1015 10 16.0934 N/A
4:56 am 04:56 Clear 57 13.9 56 13.3 96 96 N N/A 29.98 1015 10 16.0934 N/A
5:56 am 05:56 Clear 56 13.3 56 13.3 100 100 N N/A 29.97 1015 10 16.0934 N/A
6:56 am 06:56 Sunny 55 12.8 55 12.8 100 100 N N/A 29.99 1016 10 16.0934 N/A
7:56 am 07:56 Sunny 59 15 57 13.9 93 93 N N/A 29.99 1016 10 16.0934 N/A
8:56 am 08:56 Sunny 64 17.8 59 15 84 84 N 5 7 30.02 1017 10 16.0934 N/A
9:56 am 09:56 Sunny 67 19.4 60 15.6 79 79 VRB 3 6 30.03 1017 10 16.0934 N/A
10:56 am 10:56 Sunny 70 21.1 59 15 68 68 VRB 3 6 30.04 1017 10 16.0934 N/A
11:56 am 11:56 Sunny 74 23.3 56 13.3 54 54 NW 6 9 30.04 1017 10 16.0934 N/A
12:56 pm 12:56 Sunny 76 24.4 56 13.3 50 50 NW 8 13 30.02 1017 10 16.0934 N/A
1:56 pm 13:56 Sunny 78 25.6 53 11.7 42 42 VRB 5 7 30 1016 10 16.0934 N/A
2:56 pm 14:56 Sunny 79 26.1 55 12.8 44 44 VRB 7 11 30 1016 10 16.0934 N/A
3:56 pm 15:56 Sunny 80 26.7 55 12.8 42 42 VRB 6 9 30 1016 10 16.0934 N/A
4:56 pm 16:56 Sunny 81 27.2 54 12.2 39 39 NW 9 15 30 1016 10 16.0934 N/A
5:56 pm 17:56 Sunny 80 26.7 52 11.1 38 38 NNW 8 13 29.99 1016 10 16.0934 N/A
6:56 pm 18:56 Sunny 80 26.7 55 12.8 42 42 NW 8 13 29.99 1016 10 16.0934 N/A
7:56 pm 19:56 Sunny 77 25 56 13.3 48 48 NW 6 9 29.99 1016 10 16.0934 N/A
8:56 pm 20:56 Clear 70 21.1 56 13.3 61 61 NW 6 9 30.01 1016 10 16.0934 N/A
9:56 pm 21:56 Clear 65 18.3 56 13.3 73 73 N N/A 30.03 1017 10 16.0934 N/A
10:56 pm 22:56 Clear 66 18.9 56 13.3 70 70 N N/A 30.04 1017 10 16.0934 N/A
11:56 pm 23:56 Clear 63 17.2 57 13.9 81 81 N N/A 30.04 1017 10 16.0934 N/A

Powered by AerisWeather